Time,TemperatureF,DewpointF,PressureIn,WindDirection,WindDirectionDegrees,WindSpeedMPH,WindSpeedGustMPH,Humidity,HourlyPrecipIn,Conditions,Clouds,dailyrainin,SolarRadiationWatts/m^2,SoftwareType,DateUTC
2013-04-08 00:02:00,33.0,29.0,-100.00,WNW,302,3.0,12.0,85,0.00,,,0.31,0.000000,,2013-04-08 06:02:00,
2013-04-08 00:32:00,33.0,29.0,-100.00,South,180,1.0,8.0,86,0.00,,,0.31,0.000000,,2013-04-08 06:32:00,
2013-04-08 00:43:00,33.0,29.0,-100.00,South,180,1.0,8.0,86,0.00,,,0.31,0.000000,,2013-04-08 06:43:00,
2013-04-08 00:52:00,33.0,29.0,-100.00,South,180,1.0,8.0,86,0.00,,,0.31,0.000000,,2013-04-08 06:52:00,
2013-04-08 01:02:00,33.0,29.0,-100.00,South,180,1.0,8.0,86,0.00,,,0.31,0.000000,,2013-04-08 07:02:00,
2013-04-08 01:42:00,33.0,30.0,-100.00,NNE,12,1.0,7.0,87,0.00,,,0.31,0.000000,,2013-04-08 07:42:00,
2013-04-08 01:52:00,33.0,30.0,-100.00,NNE,12,1.0,7.0,87,0.00,,,0.31,0.000000,,2013-04-08 07:52:00,
2013-04-08 02:02:00,33.0,30.0,-100.00,NNE,12,1.0,7.0,87,0.00,,,0.31,0.000000,,2013-04-08 08:02:00,
2013-04-08 02:33:00,31.0,30.0,-100.00,ENE,65,0.0,3.0,97,0.00,,,0.31,0.000000,,2013-04-08 08:33:00,
2013-04-08 02:43:00,31.0,30.0,-100.00,ENE,65,0.0,3.0,97,0.00,,,0.31,0.000000,,2013-04-08 08:43:00,
2013-04-08 02:52:00,31.0,30.0,-100.00,ENE,65,0.0,3.0,97,0.00,,,0.31,0.000000,,2013-04-08 08:52:00,
2013-04-08 03:01:00,31.0,30.0,-100.00,ENE,65,0.0,3.0,97,0.00,,,0.31,0.000000,,2013-04-08 09:01:00,
2013-04-08 03:33:00,30.0,30.0,-100.00,South,169,0.0,2.0,100,0.00,,,0.31,0.000000,,2013-04-08 09:33:00,
2013-04-08 03:43:00,30.0,30.0,-100.00,South,169,0.0,2.0,100,0.00,,,0.31,0.000000,,2013-04-08 09:43:00,
2013-04-08 03:53:00,30.0,30.0,-100.00,South,169,0.0,2.0,100,0.00,,,0.31,0.000000,,2013-04-08 09:53:00,
2013-04-08 04:02:00,30.0,30.0,-100.00,South,169,0.0,2.0,100,0.00,,,0.31,0.000000,,2013-04-08 10:02:00,
2013-04-08 04:23:00,30.0,30.0,-100.00,West,272,0.0,4.0,100,0.00,,,0.31,0.000000,,2013-04-08 10:23:00,
2013-04-08 04:33:00,30.0,30.0,-100.00,West,272,0.0,4.0,100,0.00,,,0.31,0.000000,,2013-04-08 10:33:00,
2013-04-08 04:43:00,30.0,30.0,-100.00,West,272,0.0,4.0,100,0.00,,,0.31,0.000000,,2013-04-08 10:43:00,
2013-04-08 04:53:00,30.0,30.0,-100.00,West,272,0.0,4.0,100,0.00,,,0.31,0.000000,,2013-04-08 10:53:00,
2013-04-08 05:02:00,30.0,30.0,-100.00,West,272,0.0,4.0,100,0.00,,,0.31,0.000000,,2013-04-08 11:02:00,
2013-04-08 05:23:00,29.0,29.0,-100.00,SSE,158,0.0,3.0,100,0.00,,,0.31,0.000000,,2013-04-08 11:23:00,
2013-04-08 05:32:00,29.0,29.0,-100.00,SSE,158,0.0,3.0,100,0.00,,,0.31,0.000000,,2013-04-08 11:32:00,
2013-04-08 05:43:00,29.0,29.0,-100.00,SSE,158,0.0,3.0,100,0.00,,,0.31,0.000000,,2013-04-08 11:43:00,
2013-04-08 05:52:00,29.0,29.0,-100.00,SSE,158,0.0,3.0,100,0.00,,,0.31,0.000000,,2013-04-08 11:52:00,
2013-04-08 06:01:00,29.0,29.0,-100.00,SSE,158,0.0,3.0,100,0.00,,,0.31,0.000000,,2013-04-08 12:01:00,
2013-04-08 06:23:00,29.0,29.0,-100.00,North,359,0.0,2.0,100,0.00,,,0.31,0.000000,,2013-04-08 12:23:00,
2013-04-08 06:33:00,29.0,29.0,-100.00,North,359,0.0,2.0,100,0.00,,,0.31,0.000000,,2013-04-08 12:33:00,
2013-04-08 06:42:00,29.0,29.0,-100.00,North,359,0.0,2.0,100,0.00,,,0.31,0.000000,,2013-04-08 12:42:00,
2013-04-08 06:52:00,29.0,29.0,-100.00,North,359,0.0,2.0,100,0.00,,,0.31,0.000000,,2013-04-08 12:52:00,
2013-04-08 07:02:00,29.0,29.0,-100.00,North,359,0.0,2.0,100,0.00,,,0.31,0.000000,,2013-04-08 13:02:00,
2013-04-08 07:32:00,29.0,29.0,-100.00,NE,54,0.0,1.0,100,0.00,,,0.31,0.000000,,2013-04-08 13:32:00,
2013-04-08 07:43:00,29.0,29.0,-100.00,NE,54,0.0,1.0,100,0.00,,,0.31,0.000000,,2013-04-08 13:43:00,
2013-04-08 07:52:00,29.0,29.0,-100.00,NE,54,0.0,1.0,100,0.00,,,0.31,0.000000,,2013-04-08 13:52:00,
2013-04-08 08:02:00,29.0,29.0,-100.00,NE,54,0.0,1.0,100,0.00,,,0.31,0.000000,,2013-04-08 14:02:00,
2013-04-08 08:33:00,29.0,29.0,-100.00,North,10,0.0,2.0,99,0.00,,,0.31,31.000000,,2013-04-08 14:33:00,
2013-04-08 08:43:00,29.0,29.0,-100.00,North,10,0.0,2.0,99,0.00,,,0.31,31.000000,,2013-04-08 14:43:00,
2013-04-08 08:52:00,29.0,29.0,-100.00,North,10,0.0,2.0,99,0.00,,,0.31,31.000000,,2013-04-08 14:52:00,
2013-04-08 09:01:00,29.0,29.0,-100.00,North,10,0.0,2.0,99,0.00,,,0.31,31.000000,,2013-04-08 15:01:00,
2013-04-08 09:34:00,32.0,30.0,-100.00,SW,236,1.0,2.0,93,0.00,,,-99.99,75.000000,,2013-04-08 15:34:00,
2013-04-08 09:43:00,32.0,30.0,-100.00,SW,236,1.0,2.0,93,0.00,,,-99.99,75.000000,,2013-04-08 15:43:00,
2013-04-08 09:53:00,32.0,30.0,-100.00,SW,236,1.0,2.0,93,0.00,,,-99.99,75.000000,,2013-04-08 15:53:00,
2013-04-08 10:02:00,32.0,30.0,-100.00,SW,236,1.0,2.0,93,0.00,,,-99.99,75.000000,,2013-04-08 16:02:00,
2013-04-08 10:33:00,38.0,31.0,-100.00,NNW,335,1.0,4.0,76,0.00,,,0.31,216.000000,,2013-04-08 16:33:00,
2013-04-08 11:32:00,37.0,27.0,-100.00,NNW,343,1.0,7.0,67,0.01,,,0.32,284.000000,,2013-04-08 17:32:00,
2013-04-08 11:44:00,37.0,27.0,-100.00,NNW,343,1.0,7.0,67,0.01,,,0.32,284.000000,,2013-04-08 17:44:00,
2013-04-08 11:52:00,37.0,27.0,-100.00,NNW,343,1.0,7.0,67,0.01,,,0.32,284.000000,,2013-04-08 17:52:00,
2013-04-08 12:02:00,37.0,27.0,-100.00,NNW,343,1.0,7.0,67,0.01,,,0.32,284.000000,,2013-04-08 18:02:00,
2013-04-08 12:32:00,44.0,29.0,-100.00,SSE,162,2.0,9.0,55,0.00,,,0.32,446.000000,,2013-04-08 18:32:00,
2013-04-08 13:33:00,41.0,27.0,-100.00,West,266,2.0,12.0,56,-99.99,,,0.32,464.000000,,2013-04-08 19:33:00,
2013-04-08 13:52:00,41.0,27.0,-100.00,West,266,2.0,12.0,56,-99.99,,,0.32,464.000000,,2013-04-08 19:52:00,
2013-04-08 14:02:00,41.0,27.0,-100.00,West,266,2.0,12.0,56,-99.99,,,0.32,464.000000,,2013-04-08 20:02:00,
2013-04-08 14:33:00,41.0,26.0,-100.00,NNE,31,2.0,11.0,54,0.00,,,0.32,469.000000,,2013-04-08 20:33:00,
2013-04-08 14:43:00,41.0,26.0,-100.00,NNE,31,2.0,11.0,54,0.00,,,0.32,469.000000,,2013-04-08 20:43:00,
2013-04-08 14:52:00,41.0,26.0,-100.00,NNE,31,2.0,11.0,54,0.00,,,0.32,469.000000,,2013-04-08 20:52:00,
2013-04-08 15:01:00,41.0,26.0,-100.00,NNE,31,2.0,11.0,54,0.00,,,0.32,469.000000,,2013-04-08 21:01:00,
2013-04-08 15:22:00,38.0,23.0,-100.00,NE,36,3.0,14.0,55,0.00,,,0.32,327.000000,,2013-04-08 21:22:00,
2013-04-08 15:33:00,38.0,23.0,-100.00,NE,36,3.0,14.0,55,0.00,,,0.32,327.000000,,2013-04-08 21:33:00,
2013-04-08 15:43:00,38.0,23.0,-100.00,NE,36,3.0,14.0,55,0.00,,,0.32,327.000000,,2013-04-08 21:43:00,
2013-04-08 15:53:00,38.0,23.0,-100.00,NE,36,3.0,14.0,55,0.00,,,0.32,327.000000,,2013-04-08 21:53:00,
2013-04-08 16:02:00,38.0,23.0,-100.00,NE,36,3.0,14.0,55,0.00,,,0.32,327.000000,,2013-04-08 22:02:00,
2013-04-08 16:23:00,35.0,24.0,-100.00,WNW,297,3.0,13.0,63,0.00,,,0.14,186.000000,,2013-04-08 22:23:00,
2013-04-08 16:32:00,35.0,24.0,-100.00,WNW,297,3.0,13.0,63,0.00,,,0.14,186.000000,,2013-04-08 22:32:00,
2013-04-08 16:43:00,35.0,24.0,-100.00,WNW,297,3.0,13.0,63,0.00,,,0.14,186.000000,,2013-04-08 22:43:00,
2013-04-08 16:53:00,35.0,24.0,-100.00,WNW,297,3.0,13.0,63,0.00,,,0.14,186.000000,,2013-04-08 22:53:00,
2013-04-08 17:02:00,35.0,24.0,-100.00,WNW,297,3.0,13.0,63,0.00,,,0.14,186.000000,,2013-04-08 23:02:00,
2013-04-08 17:32:00,32.0,25.0,-100.00,NE,46,3.0,13.0,74,0.00,,,0.07,240.000000,,2013-04-08 23:32:00,
2013-04-08 17:43:00,32.0,25.0,-100.00,NE,46,3.0,13.0,74,0.00,,,0.07,240.000000,,2013-04-08 23:43:00,
2013-04-08 17:52:00,32.0,25.0,-100.00,NE,46,3.0,13.0,74,0.00,,,0.07,240.000000,,2013-04-08 23:52:00,
2013-04-08 18:02:00,32.0,25.0,-100.00,NE,46,3.0,13.0,74,0.00,,,0.07,240.000000,,2013-04-09 00:02:00,
2013-04-08 18:22:00,31.0,23.0,-100.00,NE,44,4.0,11.0,72,0.00,,,0.03,210.000000,,2013-04-09 00:22:00,
2013-04-08 18:32:00,31.0,23.0,-100.00,NE,44,4.0,11.0,72,0.00,,,0.03,210.000000,,2013-04-09 00:32:00,
2013-04-08 18:42:00,31.0,23.0,-100.00,NE,44,4.0,11.0,72,0.00,,,0.03,210.000000,,2013-04-09 00:42:00,
2013-04-08 18:52:00,31.0,23.0,-100.00,NE,44,4.0,11.0,72,0.00,,,0.03,210.000000,,2013-04-09 00:52:00,
2013-04-08 19:02:00,31.0,23.0,-100.00,NE,44,4.0,11.0,72,0.00,,,0.03,210.000000,,2013-04-09 01:02:00,
2013-04-08 19:22:00,29.0,20.0,-100.00,West,272,3.0,19.0,68,0.00,,,0.01,87.000000,,2013-04-09 01:22:00,
2013-04-08 19:34:00,29.0,20.0,-100.00,West,272,3.0,19.0,68,0.00,,,0.01,87.000000,,2013-04-09 01:34:00,
2013-04-08 19:42:00,29.0,20.0,-100.00,West,272,3.0,19.0,68,0.00,,,0.01,87.000000,,2013-04-09 01:42:00,
2013-04-08 19:52:00,29.0,20.0,-100.00,West,272,3.0,19.0,68,0.00,,,0.01,87.000000,,2013-04-09 01:52:00,
2013-04-08 20:02:00,29.0,20.0,-100.00,West,272,3.0,19.0,68,0.00,,,0.01,87.000000,,2013-04-09 02:02:00,
2013-04-08 20:22:00,27.0,17.0,-100.00,NE,50,2.0,14.0,66,0.00,,,0.01,12.000000,,2013-04-09 02:22:00,
2013-04-08 20:33:00,27.0,17.0,-100.00,NE,50,2.0,14.0,66,0.00,,,0.01,12.000000,,2013-04-09 02:33:00,
2013-04-08 20:44:00,27.0,17.0,-100.00,NE,50,2.0,14.0,66,0.00,,,0.01,12.000000,,2013-04-09 02:44:00,
2013-04-08 20:52:00,27.0,17.0,-100.00,NE,50,2.0,14.0,66,0.00,,,0.01,12.000000,,2013-04-09 02:52:00,
2013-04-08 21:02:00,27.0,17.0,-100.00,NE,50,2.0,14.0,66,0.00,,,0.01,12.000000,,2013-04-09 03:02:00,
2013-04-08 21:22:00,25.0,14.0,-100.00,NE,50,3.0,11.0,62,0.00,,,0.01,0.000000,,2013-04-09 03:22:00,
2013-04-08 21:33:00,25.0,14.0,-100.00,NE,50,3.0,11.0,62,0.00,,,0.01,0.000000,,2013-04-09 03:33:00,
2013-04-08 21:43:00,25.0,14.0,-100.00,NE,50,3.0,11.0,62,0.00,,,0.01,0.000000,,2013-04-09 03:43:00,
2013-04-08 21:53:00,25.0,14.0,-100.00,NE,50,3.0,11.0,62,0.00,,,0.01,0.000000,,2013-04-09 03:53:00,
2013-04-08 22:02:00,25.0,14.0,-100.00,NE,50,3.0,11.0,62,0.00,,,0.01,0.000000,,2013-04-09 04:02:00,
2013-04-08 22:23:00,23.0,12.0,-100.00,NE,49,3.0,12.0,62,0.00,,,0.01,0.000000,,2013-04-09 04:23:00,
2013-04-08 22:33:00,23.0,12.0,-100.00,NE,49,3.0,12.0,62,0.00,,,0.01,0.000000,,2013-04-09 04:33:00,
2013-04-08 22:43:00,23.0,12.0,-100.00,NE,49,3.0,12.0,62,0.00,,,0.01,0.000000,,2013-04-09 04:43:00,
2013-04-08 22:53:00,23.0,12.0,-100.00,NE,49,3.0,12.0,62,0.00,,,0.01,0.000000,,2013-04-09 04:53:00,
2013-04-08 23:02:00,23.0,12.0,-100.00,NE,49,3.0,12.0,62,0.00,,,0.01,0.000000,,2013-04-09 05:02:00,
2013-04-08 23:22:00,23.0,12.0,-100.00,NE,44,3.0,11.0,61,0.00,,,0.01,0.000000,,2013-04-09 05:22:00,
2013-04-08 23:32:00,23.0,12.0,-100.00,NE,44,3.0,11.0,61,0.00,,,0.01,0.000000,,2013-04-09 05:32:00,
2013-04-08 23:43:00,23.0,12.0,-100.00,NE,44,3.0,11.0,61,0.00,,,0.01,0.000000,,2013-04-09 05:43:00,
2013-04-08 23:52:00,23.0,12.0,-100.00,NE,44,3.0,11.0,61,0.00,,,0.01,0.000000,,2013-04-09 05:52:00,